Location: Peyton Hall Observatory
(40.3466°N, 74.6516°W)
Time: 08:26:51
(UTC-04:00)

ISS - All Passes

Search period start: 02 October 2014 00:00
Search period end: 12 October 2014 00:00
Orbit: 413 x 416 km, 51.6° (Epoch: 02 October)

Date Brightness Start Highest point End Pass type
(mag) Time Alt. Az. Time Alt. Az. Time Alt. Az.
02 Oct - 01:33:49 10° NNW 01:35:10 12° N 01:36:30 10° NNE night (unlit)
02 Oct - 03:10:15 10° NNW 03:12:50 21° NNE 03:15:25 10° ENE night (unlit)
02 Oct - 04:46:31 10° WNW 04:49:50 73° SW 04:53:08 10° SE visible
02 Oct - 21:28:06 10° SSW 21:31:18 46° SE 21:34:31 10° ENE night (unlit)
02 Oct - 23:05:17 10° W 23:08:08 25° NNW 23:10:58 10° NE night (unlit)
03 Oct - 00:44:16 10° NNW 00:45:43 12° N 00:47:09 10° NNE night (unlit)
03 Oct - 02:21:18 10° NNW 02:23:29 16° NNE 02:25:40 10° ENE night (unlit)
03 Oct - 03:57:23 10° NW 04:00:41 63° NE 04:03:59 10° ESE visible
03 Oct - 05:35:13 10° W 05:37:01 14° SW 05:38:49 10° SSW visible
03 Oct - 20:39:27 10° SSW 20:42:15 25° SE 20:45:04 10° ENE visible
03 Oct - 22:15:43 10° W 22:18:50 37° NNW 22:21:58 10° NE night (unlit)
03 Oct - 23:54:30 10° NW 23:56:15 14° N 23:58:01 10° NNE night (unlit)
04 Oct - 01:32:16 10° NNW 01:34:03 14° N 01:35:49 10° NE night (unlit)
04 Oct - 03:08:19 10° NW 03:11:28 38° NNE 03:14:35 10° E night (unlit)
04 Oct - 04:45:15 10° WNW 04:48:02 25° SW 04:50:47 10° S visible
04 Oct - 19:51:21 10° SSE 19:53:15 15° SE 19:55:09 10° E visible
04 Oct - 21:26:17 10° WSW 21:29:35 61° NW 21:32:53 10° NE visible
04 Oct - 23:04:38 10° NW 23:06:48 16° NNW 23:08:58 10° NNE night (unlit)
05 Oct - 00:43:07 10° NNW 00:44:34 12° N 00:46:01 10° NNE night (unlit)
05 Oct - 02:19:17 10° NW 02:22:08 26° NNE 02:24:59 10° E night (unlit)
05 Oct - 03:55:45 10° WNW 03:58:57 45° SW 04:02:07 10° SSE night (unlit)
05 Oct - 20:37:03 10° SW 20:40:22 75° SE 20:43:41 10° NE visible
05 Oct - 22:14:48 10° WNW 22:17:22 20° NNW 22:19:56 10° NNE night (unlit)
05 Oct - 23:53:42 10° NNW 23:55:02 12° N 23:56:23 10° NNE night (unlit)
06 Oct - 01:30:15 10° NNW 01:32:44 19° NNE 01:35:13 10° ENE night (unlit)
06 Oct - 03:06:27 10° NW 03:09:47 84° SW 03:13:05 10° SE night (unlit)
06 Oct - 19:48:04 10° SSW 19:51:11 40° SE 19:54:20 10° ENE visible
06 Oct - 21:25:02 10° W 21:27:57 28° NNW 21:30:52 10° NE visible
06 Oct - 23:03:59 10° NNW 23:05:29 12° N 23:07:00 10° NNE night (unlit)
07 Oct - 00:41:11 10° NNW 00:43:15 15° NNE 00:45:20 10° NE night (unlit)
07 Oct - 02:17:14 10° NW 02:20:31 55° NNE 02:23:47 10° ESE night (unlit)
07 Oct - 03:54:45 10° W 03:56:54 16° SW 03:59:02 10° S night (unlit)
07 Oct - 18:59:25 10° S 19:02:03 22° SE 19:04:42 10° E visible
07 Oct - 20:35:23 10° WSW 20:38:34 41° NNW 20:41:45 10° NE visible
07 Oct - 22:14:04 10° NW 22:15:56 14° NNW 22:17:47 10° NNE night (unlit)
07 Oct - 23:52:02 10° NNW 23:53:43 13° N 23:55:24 10° NE night (unlit)
08 Oct - 01:28:05 10° NW 01:31:10 34° NNE 01:34:14 10° E night (unlit)
08 Oct - 03:04:52 10° WNW 03:07:47 28° SW 03:10:41 10° SSE night (unlit)
08 Oct - 18:11:30 10° SSE 18:12:57 12° SE 18:14:25 10° ESE daylight
08 Oct - 19:45:54 10° WSW 19:49:13 71° NW 19:52:33 10° NE visible
08 Oct - 21:24:06 10° WNW 21:26:23 17° NNW 21:28:39 10° NNE visible
08 Oct - 23:02:43 10° NNW 23:04:07 12° N 23:05:31 10° NNE night (unlit)
09 Oct - 00:38:57 10° NNW 00:41:43 24° NNE 00:44:29 10° E night (unlit)
09 Oct - 02:15:20 10° WNW 02:18:35 53° SW 02:21:49 10° SE night (unlit)
09 Oct - 18:56:38 10° SW 18:59:55 64° SE 19:03:13 10° ENE visible
09 Oct - 20:34:11 10° WNW 20:36:51 22° NNW 20:39:31 10° NNE visible
09 Oct - 22:13:07 10° NNW 22:14:29 12° N 22:15:51 10° NNE night (unlit)
09 Oct - 23:49:49 10° NNW 23:52:12 18° NNE 23:54:35 10° ENE night (unlit)
10 Oct - 01:25:58 10° NW 01:29:18 83° NE 01:32:37 10° SE night (unlit)
10 Oct - 03:04:55 10° WSW 03:05:29 10° SW 03:06:03 10° SW night (unlit)
10 Oct - 18:07:37 10° SSW 18:10:39 34° SE 18:13:42 10° ENE daylight
10 Oct - 19:44:20 10° W 19:47:20 30° NNW 19:50:21 10° NE visible
10 Oct - 21:23:15 10° NW 21:24:50 13° N 21:26:25 10° NNE visible
10 Oct - 23:00:38 10° NNW 23:02:36 15° NNE 23:04:34 10° NE night (unlit)
11 Oct - 00:36:40 10° NW 00:39:55 47° NNE 00:43:08 10° ESE night (unlit)
11 Oct - 02:13:56 10° W 02:16:21 19° SW 02:18:45 10° S night (unlit)
11 Oct - 17:19:01 10° S 17:21:26 19° SE 17:23:51 10° E daylight
11 Oct - 18:54:38 10° WSW 18:57:52 47° NNW 19:01:06 10° NE visible
11 Oct - 20:33:12 10° NW 20:35:10 15° NNW 20:37:08 10° NNE visible
11 Oct - 22:11:21 10° NNW 22:12:57 13° N 22:14:32 10° NE night (unlit)
11 Oct - 23:47:26 10° NW 23:50:26 30° NNE 23:53:25 10° E night (unlit)
